| time (UTC) | temp C | wind direction | speed KPH | gust KPH | rain 1hr cm | rain 24hr cm | rain mn cm | humidity % | barometer mb |
| 20260510190009 | 17 | 267 | 0.0 | 8.0 | 0.00 | 0.00 | 0.00 | 62 | 1006.8 |
| 20260510184507 | 18 | 277 | 0.0 | 9.7 | 0.00 | 0.00 | 0.00 | 57 | 1006.5 |
| 20260510183007 | 19 | 49 | 0.0 | 0.0 | 0.00 | 0.00 | 0.00 | 57 | 1006.0 |
| 20260510181508 | 19 | 49 | 0.0 | 0.0 | 0.00 | 0.00 | 0.00 | 53 | 1005.8 |
| 20260510180009 | 20 | 49 | 0.0 | 0.0 | 0.00 | 0.00 | 0.00 | 53 | 1005.7 |
| 20260510174506 | 20 | 49 | 0.0 | 0.0 | 0.00 | 0.00 | 0.00 | 52 | 1005.7 |
| 20260510173006 | 20 | 49 | 0.0 | 0.0 | 0.00 | 0.00 | 0.00 | 49 | 1005.9 |
| 20260510171508 | 20 | 48 | 0.0 | 0.0 | 0.00 | 0.00 | 0.00 | 48 | 1005.8 |
| 20260510170007 | 20 | 47 | 0.0 | 4.8 | 0.00 | 0.00 | 0.00 | 46 | 1005.9 |
| 20260510164511 | 21 | 26 | 0.0 | 4.8 | 0.00 | 0.00 | 0.00 | 45 | 1006.0 |
| 20260510163006 | 21 | 32 | 1.6 | 6.4 | 0.00 | 0.00 | 0.00 | 46 | 1006.2 |
| 20260510161503 | 21 | 38 | 0.0 | 9.7 | 0.00 | 0.00 | 0.00 | 45 | 1006.3 |
| 20260510154558 | 21 | 26 | 1.6 | 8.0 | 0.00 | 0.00 | 0.00 | 46 | 1006.7 |
| 20260510153103 | 21 | 78 | 0.0 | 8.0 | 0.00 | 0.00 | 0.00 | 44 | 1007.0 |
| 20260510151627 | 21 | 40 | 0.0 | 4.8 | 0.00 | 0.00 | 0.00 | 45 | 1007.2 |
| 20260510150058 | 21 | 50 | 0.0 | 4.8 | 0.00 | 0.00 | 0.00 | 45 | 1007.3 |
| 20260510144601 | 21 | 83 | 0.0 | 9.7 | 0.00 | 0.00 | 0.00 | 45 | 1007.5 |
| 20260510143103 | 22 | 36 | 1.6 | 8.0 | 0.00 | 0.00 | 0.00 | 46 | 1007.6 |
| 20260510141556 | 22 | 18 | 4.8 | 16.1 | 0.00 | 0.00 | 0.00 | 44 | 1007.6 |
| 20260510140050 | 22 | 59 | 0.0 | 4.8 | 0.00 | 0.00 | 0.00 | 44 | 1007.7 |
| 20260510134552 | 22 | 17 | 0.0 | 9.7 | 0.00 | 0.00 | 0.00 | 44 | 1008.0 |
| 20260510133049 | 22 | 55 | 1.6 | 12.9 | 0.00 | 0.00 | 0.00 | 43 | 1008.1 |
| 20260510131553 | 22 | 360 | 1.6 | 8.0 | 0.00 | 0.00 | 0.00 | 45 | 1008.1 |
| 20260510130048 | 22 | 74 | 0.0 | 11.3 | 0.00 | 0.00 | 0.00 | 45 | 1008.3 |
| 20260510124556 | 22 | 32 | 0.0 | 6.4 | 0.00 | 0.00 | 0.00 | 46 | 1008.5 |
| 20260510123045 | 22 | 51 | 1.6 | 8.0 | 0.00 | 0.00 | 0.00 | 48 | 1008.7 |
| 20260510121542 | 22 | 18 | 1.6 | 11.3 | 0.00 | 0.00 | 0.00 | 44 | 1008.9 |
| 20260510120038 | 22 | 119 | 1.6 | 8.0 | 0.00 | 0.00 | 0.00 | 44 | 1009.1 |
| 20260510114543 | 22 | 29 | 1.6 | 11.3 | 0.00 | 0.00 | 0.00 | 44 | 1009.1 |
| 20260510113034 | 22 | 11 | 0.0 | 9.7 | 0.00 | 0.00 | 0.00 | 43 | 1009.3 |
| 20260510111534 | 22 | 5 | 1.6 | 14.5 | 0.00 | 0.00 | 0.00 | 45 | 1009.4 |
| 20260510110031 | 22 | 13 | 4.8 | 12.9 | 0.00 | 0.00 | 0.00 | 47 | 1009.6 |
| 20260510104529 | 22 | 55 | 0.0 | 8.0 | 0.00 | 0.00 | 0.00 | 48 | 1010.0 |
| 20260510103027 | 21 | 73 | 0.0 | 6.4 | 0.00 | 0.00 | 0.00 | 49 | 1010.2 |
| 20260510101521 | 21 | 112 | 3.2 | 9.7 | 0.00 | 0.00 | 0.00 | 52 | 1010.3 |
| 20260510100029 | 21 | 11 | 4.8 | 12.9 | 0.00 | 0.00 | 0.00 | 51 | 1010.4 |
| 20260510094518 | 21 | 15 | 3.2 | 11.3 | 0.00 | 0.00 | 0.00 | 50 | 1010.6 |
| 20260510093013 | 20 | 11 | 3.2 | 11.3 | 0.00 | 0.00 | 0.00 | 53 | 1010.8 |
| 20260510091511 | 20 | 49 | 0.0 | 9.7 | 0.00 | 0.00 | 0.00 | 53 | 1010.8 |
| 20260510090010 | 20 | 71 | 0.0 | 9.7 | 0.00 | 0.00 | 0.00 | 53 | 1010.9 |
| 20260510084506 | 20 | 24 | 0.0 | 9.7 | 0.00 | 0.00 | 0.00 | 55 | 1011.0 |
| 20260510083016 | 19 | 24 | 3.2 | 11.3 | 0.00 | 0.00 | 0.00 | 58 | 1011.1 |
| 20260510081601 | 18 | 49 | 0.0 | 8.0 | 0.00 | 0.00 | 0.00 | 60 | 1011.2 |
| 20260510081503 | 18 | 49 | 0.0 | 8.0 | 0.00 | 0.00 | 0.00 | 60 | 1011.2 |
| 20260510074553 | 17 | 58 | 0.0 | 4.8 | 0.00 | 0.00 | 0.00 | 63 | 1011.5 |
| 20260510073100 | 17 | 84 | 1.6 | 6.4 | 0.00 | 0.00 | 0.00 | 64 | 1011.7 |
| 20260510071550 | 16 | 74 | 0.0 | 4.8 | 0.00 | 0.00 | 0.00 | 68 | 1011.7 |
| 20260510064541 | 15 | 54 | 0.0 | 4.8 | 0.00 | 0.00 | 0.00 | 70 | 1011.8 |
| 20260510063037 | 14 | 69 | 0.0 | 6.4 | 0.00 | 0.00 | 0.00 | 74 | 1011.8 |
| 20260510061533 | 13 | 71 | 0.0 | 4.8 | 0.00 | 0.00 | 0.00 | 80 | 1011.8 |
| 20260510054526 | 10 | 20 | 0.0 | 0.0 | 0.00 | 0.00 | 0.00 | 95 | 1012.1 |
| 20260510053025 | 8 | 20 | 0.0 | 0.0 | 0.00 | 0.00 | 0.00 | 95 | 1012.1 |
| 20260510051520 | 7 | 20 | 0.0 | 0.0 | 0.00 | 0.00 | 0.00 | 93 | 1012.1 |
| 20260510044527 | 6 | 20 | 0.0 | 0.0 | 0.00 | 0.00 | 0.00 | 91 | 1012.3 |
| 20260510043013 | 6 | 20 | 0.0 | 0.0 | 0.00 | 0.00 | 0.00 | 91 | 1012.4 |
| 20260510041513 | 6 | 20 | 0.0 | 0.0 | 0.00 | 0.00 | 0.00 | 90 | 1012.4 |
| 20260510034509 | 6 | 20 | 0.0 | 0.0 | 0.00 | 0.00 | 0.00 | 89 | 1012.5 |
| 20260510033007 | 6 | 20 | 0.0 | 0.0 | 0.00 | 0.00 | 0.00 | 89 | 1012.4 |
| 20260510031505 | 6 | 20 | 0.0 | 0.0 | 0.00 | 0.00 | 0.00 | 89 | 1012.4 |
| 20260510024559 | 7 | 20 | 0.0 | 0.0 | 0.00 | 0.00 | 0.00 | 88 | 1012.4 |
| 20260510023056 | 7 | 20 | 0.0 | 0.0 | 0.00 | 0.00 | 0.00 | 88 | 1012.7 |
| 20260510021555 | 7 | 20 | 0.0 | 0.0 | 0.00 | 0.00 | 0.00 | 88 | 1012.7 |
| 20260510014553 | 7 | 20 | 0.0 | 0.0 | 0.00 | 0.00 | 0.00 | 87 | 1012.9 |
| 20260510013051 | 7 | 20 | 0.0 | 0.0 | 0.00 | 0.00 | 0.00 | 87 | 1013.0 |
| 20260510011550 | 8 | 20 | 0.0 | 0.0 | 0.00 | 0.00 | 0.00 | 86 | 1013.0 |
| 20260510004544 | 8 | 20 | 0.0 | 0.0 | 0.00 | 0.00 | 0.00 | 86 | 1013.4 |
| 20260510003041 | 8 | 20 | 0.0 | 0.0 | 0.00 | 0.00 | 0.00 | 85 | 1013.4 |
| 20260510001542 | 8 | 20 | 0.0 | 0.0 | 0.00 | 0.00 | 0.00 | 85 | 1013.6 |
| 20260509234548 | 9 | 20 | 0.0 | 0.0 | 0.00 | 0.00 | 0.00 | 84 | 1013.9 |
| 20260509233034 | 10 | 20 | 0.0 | 0.0 | 0.00 | 0.00 | 0.00 | 83 | 1014.0 |
| 20260509231531 | 10 | 20 | 0.0 | 0.0 | 0.00 | 0.00 | 0.00 | 83 | 1014.0 |
| 20260509224528 | 11 | 20 | 0.0 | 0.0 | 0.00 | 0.00 | 0.00 | 82 | 1014.3 |
| 20260509223026 | 11 | 20 | 0.0 | 0.0 | 0.00 | 0.00 | 0.00 | 82 | 1014.3 |
| 20260509221524 | 11 | 20 | 0.0 | 0.0 | 0.00 | 0.00 | 0.00 | 81 | 1014.3 |
| 20260509214527 | 12 | 20 | 0.0 | 0.0 | 0.00 | 0.00 | 0.00 | 81 | 1014.5 |
| 20260509213020 | 12 | 20 | 0.0 | 0.0 | 0.00 | 0.00 | 0.00 | 80 | 1014.4 |
| 20260509211519 | 12 | 20 | 0.0 | 0.0 | 0.00 | 0.00 | 0.00 | 78 | 1014.5 |
| 20260509204524 | 13 | 20 | 0.0 | 0.0 | 0.00 | 0.00 | 0.00 | 76 | 1014.7 |
| 20260509203017 | 14 | 20 | 0.0 | 0.0 | 0.00 | 0.00 | 0.00 | 74 | 1014.7 |
| 20260509201517 | 14 | 20 | 0.0 | 0.0 | 0.00 | 0.00 | 0.00 | 72 | 1014.8 |
| 20260509194518 | 16 | 20 | 0.0 | 0.0 | 0.00 | 0.00 | 0.00 | 68 | 1014.8 |
| 20260509193014 | 16 | 20 | 0.0 | 0.0 | 0.00 | 0.00 | 0.00 | 67 | 1014.8 |
| 20260509191518 | 17 | 20 | 0.0 | 0.0 | 0.00 | 0.00 | 0.00 | 65 | 1014.7 |